• In Spain
  • List of Countries
  • For 7 days
  • Water Temperature
  • Satellite Maps
  • Weather Map
  • Weather Widgets
  • user-avatar
    Login

    Hourly Weather Lenino

    Today, 22 April, Sunday

    Time Temperature Precipitation Wind Pressure Humidity
    00:00 +3°C° 0 mm 6 mps 728 mmHg 74%
    01:00 +2°C° 0 mm 6 mps 729 mmHg 77%
    02:00 +3°C° 0 mm 4 mps 729 mmHg 79%
    03:00 +3°C° 0 mm 4 mps 729 mmHg 80%
    04:00 +1°C° 0 mm 4 mps 729 mmHg 80%
    05:00 +1°C° 0 mm 4 mps 730 mmHg 81%
    06:00 +1°C° 0 mm 4 mps 730 mmHg 77%
    07:00 +1°C° 0 mm 4 mps 730 mmHg 74%
    08:00 +3°C° 0 mm 4 mps 731 mmHg 70%
    09:00 +3°C° 0 mm 4 mps 731 mmHg 67%
    10:00 +3°C° 0 mm 4 mps 732 mmHg 64%
    11:00 +4°C° 0 mm 4 mps 732 mmHg 61%
    12:00 +3°C° 0 mm 5 mps 733 mmHg 60%
    13:00 +3°C° 0 mm 5 mps 733 mmHg 58%
    14:00 +3°C° 0 mm 5 mps 734 mmHg 57%
    15:00 +3°C° 0 mm 5 mps 734 mmHg 58%
    16:00 +3°C° 0 mm 4 mps 735 mmHg 58%
    17:00 +3°C° 0 mm 4 mps 735 mmHg 58%
    18:00 +1°C° 0 mm 4 mps 736 mmHg 61%
    19:00 +2°C° 0 mm 3 mps 736 mmHg 65%
    20:00 +1°C° 0 mm 3 mps 737 mmHg 68%
    21:00 +1°C° 0 mm 2 mps 737 mmHg 71%
    22:00 -1°C° 0 mm 2 mps 738 mmHg 75%
    23:00 -2°C° 0 mm 2 mps 738 mmHg 78%

    Tomorrow, 23 April, Monday

    Time Temperature Precipitation Wind Pressure Humidity
    00:00 -2°C° 0 mm 2 mps 738 mmHg 80%
    01:00 -3°C° 0 mm 2 mps 739 mmHg 82%
    02:00 -3°C° 0 mm 2 mps 739 mmHg 83%
    03:00 -3°C° 0 mm 2 mps 740 mmHg 82%
    04:00 -3°C° 0 mm 2 mps 740 mmHg 82%
    05:00 -3°C° 0 mm 2 mps 740 mmHg 81%
    06:00 -2°C° 0 mm 2 mps 741 mmHg 71%
    07:00 +1°C° 0 mm 2 mps 741 mmHg 61%
    08:00 +1°C° 0 mm 3 mps 741 mmHg 51%
    09:00 +4°C° 0 mm 2 mps 741 mmHg 46%
    10:00 +5°C° 0 mm 2 mps 741 mmHg 41%
    11:00 +6°C° 0 mm 2 mps 741 mmHg 37%
    12:00 +6°C° 0 mm 2 mps 741 mmHg 36%
    13:00 +7°C° 0 mm 2 mps 741 mmHg 35%
    14:00 +8°C° 0 mm 2 mps 740 mmHg 34%
    15:00 +7°C° 0 mm 2 mps 740 mmHg 36%
    16:00 +7°C° 0 mm 2 mps 740 mmHg 38%
    17:00 +7°C° 0 mm 2 mps 740 mmHg 39%
    18:00 +6°C° 0 mm 1 mps 740 mmHg 47%
    19:00 +4°C° 0 mm 1 mps 740 mmHg 54%
    20:00 +2°C° 0 mm 1 mps 740 mmHg 61%
    21:00 +2°C° 0 mm 1 mps 740 mmHg 63%
    22:00 +1°C° 0 mm 1 mps 740 mmHg 65%
    23:00 +1°C° 0 mm 1 mps 740 mmHg 66%

    Day after tomorrow, 24 April, Tuesday

    Time Temperature Precipitation Wind Pressure Humidity
    00:00 +1°C° 0 mm 1 mps 740 mmHg 67%
    01:00 0°C° 0 mm 1 mps 740 mmHg 69%
    02:00 0°C° 0 mm 1 mps 740 mmHg 70%
    03:00 0°C° 0 mm 1 mps 740 mmHg 69%
    04:00 0°C° 0 mm 1 mps 739 mmHg 69%
    05:00 0°C° 0 mm 1 mps 739 mmHg 69%
    06:00 +1°C° 0 mm 2 mps 739 mmHg 62%
    07:00 +4°C° 0 mm 2 mps 739 mmHg 55%
    08:00 +6°C° 0 mm 2 mps 739 mmHg 48%
    09:00 +7°C° 0 mm 2 mps 739 mmHg 46%
    10:00 +9°C° 0 mm 3 mps 738 mmHg 43%
    11:00 +10°C° 0 mm 3 mps 738 mmHg 40%
    12:00 +11°C° 0 mm 3 mps 737 mmHg 42%
    13:00 +11°C° 0 mm 3 mps 737 mmHg 44%
    14:00 +12°C° 0 mm 3 mps 737 mmHg 46%
    15:00 +11°C° 0.1 mm 3 mps 737 mmHg 53%
    16:00 +10°C° 0.1 mm 3 mps 736 mmHg 59%
    17:00 +10°C° 0.1 mm 2 mps 736 mmHg 65%
    18:00 +9°C° 0.2 mm 2 mps 736 mmHg 71%
    19:00 +8°C° 0.2 mm 2 mps 735 mmHg 78%
    20:00 +7°C° 0.2 mm 2 mps 735 mmHg 84%
    21:00 +7°C° 0.1 mm 2 mps 735 mmHg 86%
    22:00 +6°C° 0.1 mm 2 mps 735 mmHg 88%
    23:00 +6°C° 0.1 mm 2 mps 735 mmHg 89%

    25 April, Wednesday

    Time Temperature Precipitation Wind Pressure Humidity
    00:00 +6°C° 0 mm 2 mps 735 mmHg 92%
    01:00 +5°C° 0 mm 2 mps 734 mmHg 94%
    02:00 +5°C° 0 mm 2 mps 734 mmHg 97%
    03:00 +5°C° 0 mm 2 mps 734 mmHg 97%
    04:00 +5°C° 0 mm 2 mps 734 mmHg 97%
    05:00 +5°C° 0 mm 2 mps 734 mmHg 97%
    06:00 +6°C° 0 mm 2 mps 733 mmHg 92%
    07:00 +7°C° 0 mm 3 mps 733 mmHg 87%
    08:00 +8°C° 0 mm 3 mps 733 mmHg 82%
    09:00 +8°C° 0.6 mm 3 mps 733 mmHg 83%
    10:00 +7°C° 0.6 mm 4 mps 732 mmHg 84%
    11:00 +7°C° 0.6 mm 4 mps 732 mmHg 84%
    12:00 +7°C° 0.4 mm 4 mps 732 mmHg 83%
    13:00 +8°C° 0.4 mm 4 mps 732 mmHg 82%
    14:00 +8°C° 0.4 mm 4 mps 731 mmHg 81%
    15:00 +10°C° 0.4 mm 4 mps 731 mmHg 78%
    16:00 +10°C° 0.4 mm 4 mps 731 mmHg 75%
    17:00 +10°C° 0.4 mm 4 mps 731 mmHg 72%
    18:00 +9°C° 0 mm 3 mps 731 mmHg 77%
    19:00 +7°C° 0 mm 3 mps 732 mmHg 82%
    20:00 +6°C° 0 mm 2 mps 732 mmHg 87%
    21:00 +5°C° 0 mm 2 mps 732 mmHg 89%
    22:00 +5°C° 0 mm 2 mps 732 mmHg 91%
    23:00 +4°C° 0 mm 2 mps 732 mmHg 93%

    26 April, Thursday

    Time Temperature Precipitation Wind Pressure Humidity
    00:00 +4°C° 0 mm 2 mps 732 mmHg 93%
    01:00 +4°C° 0 mm 2 mps 732 mmHg 94%
    02:00 +3°C° 0 mm 2 mps 732 mmHg 94%
    03:00 +4°C° 0 mm 2 mps 732 mmHg 93%
    04:00 +5°C° 0 mm 1 mps 731 mmHg 93%
    05:00 +5°C° 0 mm 1 mps 731 mmHg 92%
    06:00 +6°C° 0 mm 1 mps 731 mmHg 88%
    07:00 +6°C° 0 mm 2 mps 731 mmHg 84%
    08:00 +7°C° 0 mm 2 mps 731 mmHg 80%
    09:00 +8°C° 0.2 mm 2 mps 731 mmHg 76%
    10:00 +9°C° 0.2 mm 3 mps 731 mmHg 71%
    11:00 +10°C° 0.2 mm 4 mps 732 mmHg 66%
    12:00 +10°C° 0.2 mm 4 mps 732 mmHg 64%
    13:00 +10°C° 0.2 mm 5 mps 732 mmHg 61%
    14:00 +10°C° 0.2 mm 5 mps 732 mmHg 59%
    15:00 +11°C° 0.1 mm 4 mps 733 mmHg 57%
    16:00 +12°C° 0.1 mm 4 mps 733 mmHg 55%
    17:00 +12°C° 0.1 mm 3 mps 733 mmHg 53%
    18:00 +10°C° 0 mm 3 mps 734 mmHg 59%
    19:00 +8°C° 0 mm 2 mps 735 mmHg 66%
    20:00 +6°C° 0 mm 2 mps 735 mmHg 73%
    21:00 +6°C° 0 mm 2 mps 736 mmHg 76%
    22:00 +6°C° 0 mm 2 mps 736 mmHg 78%
    23:00 +5°C° 0 mm 2 mps 736 mmHg 81%

    27 April, Friday

    Time Temperature Precipitation Wind Pressure Humidity
    00:00 +5°C° 0 mm 2 mps 737 mmHg 83%
    01:00 +5°C° 0 mm 2 mps 737 mmHg 86%
    02:00 +4°C° 0 mm 2 mps 737 mmHg 88%
    03:00 +4°C° 0 mm 2 mps 737 mmHg 88%
    04:00 +5°C° 0 mm 2 mps 737 mmHg 88%
    05:00 +4°C° 0 mm 3 mps 738 mmHg 89%
    06:00 +5°C° 0 mm 3 mps 738 mmHg 83%
    07:00 +8°C° 0 mm 3 mps 738 mmHg 77%
    08:00 +9°C° 0 mm 3 mps 738 mmHg 71%
    09:00 +11°C° 0.1 mm 4 mps 738 mmHg 66%
    10:00 +12°C° 0.1 mm 4 mps 738 mmHg 61%
    11:00 +13°C° 0.1 mm 5 mps 738 mmHg 56%
    12:00 +13°C° 0.3 mm 4 mps 738 mmHg 59%
    13:00 +13°C° 0.3 mm 4 mps 738 mmHg 62%
    14:00 +13°C° 0.3 mm 4 mps 738 mmHg 65%
    15:00 +12°C° 0.5 mm 3 mps 738 mmHg 72%
    16:00 +11°C° 0.5 mm 3 mps 738 mmHg 78%
    17:00 +10°C° 0.5 mm 2 mps 737 mmHg 84%
    18:00 +9°C° 0.2 mm 2 mps 737 mmHg 88%
    19:00 +9°C° 0.2 mm 2 mps 737 mmHg 92%
    20:00 +9°C° 0.2 mm 1 mps 737 mmHg 95%
    21:00 +9°C° 0.3 mm 1 mps 737 mmHg 96%
    22:00 +9°C° 0.3 mm 1 mps 737 mmHg 96%
    23:00 +8°C° 0.3 mm 1 mps 737 mmHg 97%
    Show more